Location: Muncie
(40.1930°N, 85.3860°W)
Time: 23:36:09
(UTC-04:00)

Hubble Space Telescope - Pass Details

Date: 19 February 2026
Orbit: 476 x 478 km, 28.5° (Epoch: 16 March)

Event Time Altitude Azimuth Distance (km) Brightness Sun altitude
Exits shadow 06:41:57 - 225° (SW) 2,294 3.6 -9.7°
Reaches altitude 10° 06:44:30 10° 200° (SSW) 1,637 3.1 -9.2°
Maximum altitude 06:46:12 13° 173° (S) 1,478 3.2 -8.9°
Drops below altitude 10° 06:47:54 10° 146° (SE) 1,638 3.9 -8.6°
Sets 06:51:08 0° 117° (ESE) 2,517 5.8 -8.0°
